THEMIS E

Last updated on Sat Apr 11 2026 00:02:44 GMT+0000 (Coordinated Universal Time)

1 30798U 07004E 26097.01252090 -.00000103 00000+0 00000+0 0 9994 2 30798 4.9693 100.1033 8393057 204.9643 176.2275 0.88160021 65299
UTC large
Height (km)
Speed (km/s)
/
Latitude / Longitude
Inclination (degrees)
Orbital Period (minutes)
Azimuth
Elevation
Range (km)
Doppler Factor

Next 0 passes for location: London (51.5072 / 0.1276)

Sorry there are no passes over London.